Olympia, WA

10:21 PM PDT on June 22, 2018 (GMT -0700)
Olympia

Weather History for KOLM - August, 2016

Change the Weather History Date:

Friday, August 19, 2016

  Actual Average Record
Temperature  
Mean Temperature 75 °F 64 °F  
Max Temperature 96 °F 78 °F 96 °F (2016)
Min Temperature 54 °F 50 °F 35 °F (1973)
Degree Days  
Heating Degree Days 0 2  
Month to date heating degree days 30 38  
Since 1 June heating degree days 254 306  
Since 1 July heating degree days 88 118  
Cooling Degree Days 10 1  
Month to date cooling degree days 49 35  
Year to date cooling degree days 121 92  
Since 1 June cooling degree days 120 89  
Growing Degree Days 25 (Base 50)    
Moisture  
Dew Point 48 °F    
Average Humidity 51    
Maximum Humidity 86    
Minimum Humidity 16    
Precipitation  
Precipitation 0.00 in 0.04 in 0.84 in (1965)
Month to date precipitation 0.21 0.44  
Year to date precipitation 27.45 27.10  
Sea Level Pressure  
Sea Level Pressure 29.95 in    
Wind  
Wind Speed 5 mph (NNE)    
Max Wind Speed 14 mph    
Max Gust Speed 19 mph    
Visibility 10 miles    
Events      
T = Trace of Precipitation, MM = Missing Value Source: NWS Daily Summary

Daily Weather History Graph

Daily Weather History Graph

Search for Another Location

Airport or City:

Astronomy

Aug. 19, 2016 Rise Set
Actual Time 6:14 AM PDT 8:14 PM PDT
Civil Twilight 5:42 AM PDT 8:46 PM PDT
Nautical Twilight 5:01 AM PDT 9:27 PM PDT
Astronomical Twilight 4:16 AM PDT 10:11 PM PDT
Moon 9:03 PM PDT (8/19) 7:45 AM PDT (8/19)
Length of Visible Light 15h 04m
Length of Day
13h 59m
Full, 97% of the Moon is Illuminated
Aug 19
Full
Aug 24
Last Quarter
Sep 1
New
Sep 9
First Quarter
Sep 16
Full

Hourly Weather History & Observations

Time (PDT) Temp. Dew Point Humidity Pressure Visibility Wind Dir Wind Speed Gust Speed Precip Events Conditions
12:54 AM 60.1 °F 50.0 °F 69% 29.94 in 10.0 mi Calm Calm - N/A   Clear
1:54 AM 57.9 °F 50.0 °F 75% 29.95 in 10.0 mi Calm Calm - N/A   Clear
2:54 AM 55.9 °F 50.0 °F 80% 29.96 in 10.0 mi Calm Calm - N/A   Clear
3:54 AM 57.0 °F 51.1 °F 81% 29.96 in 10.0 mi Calm Calm - N/A   Clear
4:54 AM 55.9 °F 51.1 °F 84% 29.96 in 10.0 mi Calm Calm - N/A   Clear
5:54 AM 55.9 °F 50.0 °F 80% 29.97 in 10.0 mi Calm Calm - N/A   Clear
6:54 AM 57.9 °F 51.1 °F 78% 29.98 in 10.0 mi Calm Calm - N/A   Clear
7:54 AM 68.0 °F 55.0 °F 63% 29.99 in 10.0 mi Calm Calm - N/A   Clear
8:54 AM 73.0 °F 53.1 °F 49% 30.00 in 10.0 mi NE 4.6 mph - N/A   Clear
9:54 AM 79.0 °F 52.0 °F 39% 30.00 in 10.0 mi North 6.9 mph - N/A   Clear
10:54 AM 82.9 °F 50.0 °F 32% 30.00 in 10.0 mi North 5.8 mph - N/A   Clear
11:54 AM 87.1 °F 46.9 °F 25% 29.99 in 10.0 mi NE 8.1 mph - N/A   Clear
12:54 PM 90.0 °F 46.0 °F 22% 29.99 in 10.0 mi NNE 10.4 mph - N/A   Clear
1:54 PM 91.9 °F 46.0 °F 21% 29.97 in 10.0 mi NE 9.2 mph - N/A   Clear
2:54 PM 95.0 °F 45.0 °F 18% 29.95 in 10.0 mi NNE 11.5 mph 18.4 mph N/A   Clear
3:54 PM 96.1 °F 44.1 °F 17% 29.94 in 10.0 mi North 11.5 mph - N/A   Clear
4:54 PM 95.0 °F 43.0 °F 17% 29.92 in 10.0 mi NE 9.2 mph - N/A   Clear
5:54 PM 95.0 °F 44.1 °F 17% 29.90 in 10.0 mi NNE 11.5 mph - N/A   Clear
6:54 PM 91.9 °F 43.0 °F 18% 29.90 in 10.0 mi ENE 8.1 mph - N/A   Clear
7:54 PM 87.1 °F 43.0 °F 21% 29.90 in 10.0 mi NE 6.9 mph - N/A   Clear
8:54 PM 80.1 °F 43.0 °F 27% 29.91 in 10.0 mi North 4.6 mph - N/A   Clear
9:54 PM 71.1 °F 46.9 °F 42% 29.92 in 10.0 mi WNW 4.6 mph - N/A   Clear
10:54 PM 66.0 °F 48.0 °F 52% 29.93 in 10.0 mi Calm Calm - N/A   Clear
11:54 PM 64.0 °F 48.0 °F 56% 29.92 in 10.0 mi Calm Calm - N/A   Clear